{"data":{"norad_id":43758,"epoch":"2026-09-20T04:10:09.287040Z","epoch_age_seconds":50102,"freshness":"FRESH","line1":"1 43758U 18099A   26263.17371860  .00034574  00000+0  54110-3 0  9992","line2":"2 43758  97.4442 342.6631 0005490 267.5189  92.5436 15.53663568428843","mean_motion":15.53663568,"eccentricity":0.000549,"inclination_deg":97.4442,"raan_deg":342.6631,"arg_perigee_deg":267.5189,"mean_anomaly_deg":92.5436,"bstar":0.0005411,"rev_number":42884,"period_min":92.684158247572,"perigee_km":402.31574339896,"apogee_km":409.76477002684,"semimajor_km":6784.1772567129,"source":"CELESTRAK","updated_at":"2026-09-20T09:00:14.399973Z"}}